Weather Roundup
Issued by NWS Springfield, MO

Home | Current Version | Previous Version | Text Only | Print | Product List | Glossary On
Versions: 1 2 3 4 5 6 7 8 9 10 11 12 13 14 15 16 17 18 19 20 21 22 23 24 25 26 27 28 29 30 31 32 33 34 35 36 37 38 39 40 41 42 43 44 45 46 47 48 49 50
000
NZUS99 KSGF 220807
HRRSGF

HOURLY WEATHER
NATIONAL WEATHER SERVICE SPRINGFIELD MO
300 AM CDT SUN OCT 22 2017

......SGF CWA......

CITY           SKY/WX    TMP DP  RH WIND       PRES   REMARKS
SPRINGFIELD    LGT RAIN  60  60 100 W6        29.97R
JOPLIN         HVY RAIN  56  56 100 MISG      29.96F FOG
WEST PLAINS    CLOUDY    71  65  81 S14G28    29.89F
ROLLA          CLOUDY    70  64  81 S15G24    29.86S
OSAGE BEACH    HVY RAIN  58  57  97 VRB5      29.93S
BRANSON        LGT RAIN  57  57 100 W7        30.01R

......SURROUNDING SGF CWA......

CITY           SKY/WX    TMP DP  RH WIND       PRES   REMARKS
CHANUTE        LGT RAIN  52  50  93 N13       29.97F
PARSONS        CLOUDY    53  51  93 NW7       30.01R
COFFEYVILLE    CLOUDY    54  52  93 N10       29.98R
EMPORIA        MOCLDY    50  46  86 NW6       30.02R
GROVE OK       TSTM      59  59 100 NE3       29.98F
ROGERS AR      RAIN      58  57  97 CALM      30.03R FOG
SILOAM SPRINGS RAIN      57  57 100 E6        30.00S FOG
HARRISON AR    RAIN      58  58 100 W9        29.99R
NEAR YELLVILLE TSTM      60  58  92 NW20G26   29.94R FOG

......KANSAS AND MISSOURI......

CITY           SKY/WX    TMP DP  RH WIND       PRES   REMARKS
KANSAS CTY INT LGT RAIN  50  47  89 NE12      29.98S
DOWNTOWN KC    LGT RAIN  52  50  93 VRB6      29.98S
COLUMBIA       LGT RAIN  60  60 100 NW12      29.90R
SEDALIA        RAIN      55  55 100 NW12      29.96R
ST JOSEPH      CLOUDY    51  51 100 NE3       29.98F
ST LOUIS       MOCLDY    70  62  76 SE15G23   29.89F
SPIRIT OF STL  CLOUDY    72  64  76 SE9G20    29.87F
KIRKSVILLE     RAIN      53  53 100 NW13G23   29.97R FOG
WICHITA        CLOUDY    50  43  77 NW7       30.05F
TOPEKA         CLOUDY    51  50  96 CALM      30.02R
OLATHE         RAIN      49  48  97 NE9       29.98S

......TENNESSEE......

CITY           SKY/WX    TMP DP  RH WIND       PRES   REMARKS
MEMPHIS        CLOUDY    73  64  73 S15       30.00F
NASHVILLE      MOCLDY    63  54  72 SE7       30.15F

......ARKANSAS.......

CITY           SKY/WX    TMP DP  RH WIND       PRES   REMARKS
FAYETTEVILLE   TSTM      57  57 100 CALM      30.01F FOG
FT SMITH       TSTM      60  59  96 CALM      30.02R FOG
LITTLE ROCK    LGT RAIN  74  71  91 S12       29.94S

......OKLAHOMA.......

CITY           SKY/WX    TMP DP  RH WIND       PRES   REMARKS
TULSA          CLOUDY    56  55  97 NW13      30.01R
PONCA CITY     CLOUDY    52  48  86 NW6       30.05R
MCALESTER      TSTM      61  59  93 E5        29.99R FOG
OKLAHOMA CITY  CLOUDY    54  51  90 N14       30.05R

......IOWA............

CITY           SKY/WX    TMP DP  RH WIND       PRES   REMARKS
DES MOINES     LGT RAIN  51  47  86 NW5       29.96R
QUAD CITIES    CLOUDY    65  61  87 W8        29.87R

......ILLINOIS........

CITY           SKY/WX    TMP DP  RH WIND       PRES   REMARKS
QUINCY         CLOUDY    68  61  78 SE12      29.83F
CHICAGO        MOCLDY    67  54  63 S15       29.96F



USA.gov is the U.S. government's official web portal to all federal, state and local government web resources and services.